Weather History for Livermore, CA

Change the Weather History Date:

Sunday, June 2, 2013

  Actual Average Record
Temperature  
Mean Temperature 72 °F 65 °F  
Max Temperature 88 °F 78 °F 104 °F (1960)
Min Temperature 55 °F 52 °F 40 °F (1933)
Degree Days  
Heating Degree Days 0 2  
Month to date heating degree days 0 4  
Since 1 June heating degree days 0 4  
Since 1 July heating degree days 2390 2752  
Cooling Degree Days 7 2  
Month to date cooling degree days 18 4  
Year to date cooling degree days 119 57  
Since 1 June cooling degree days 18 4  
Growing Degree Days 22 (Base 50)    
Moisture  
Dew Point 50 °F    
Average Humidity 50    
Maximum Humidity 72    
Minimum Humidity 28    
Precipitation  
Precipitation 0.00 in 0.00 in 0.22 in (1985)
Month to date precipitation 0.00 0.01  
Year to date precipitation 2.08 9.87  
Since 1 July precipitation 10.37 15.68  
Sea Level Pressure  
Sea Level Pressure 29.71 in    
Wind  
Wind Speed 7 mph (WNW)    
Max Wind Speed 17 mph    
Max Gust Speed 21 mph    
Visibility 10 miles    
Events      
T = Trace of Precipitation, MM = Missing Value Source: NWS Daily Summary

Daily Weather History Graph

Daily Weather History Graph

Search for Another Location

Airport:

Trip Planner

Search our weather history database for the weather conditions in past years. The results will help you decide how hot, cold, wet, or windy it might be!

Date:

Astronomy

Jun. 02, 2013 Rise Set
Actual Time 5:46 AM PDT 8:24 PM PDT
Civil Twilight 5:16 AM PDT 8:54 PM PDT
Nautical Twilight 4:37 AM PDT 9:33 PM PDT
Astronomical Twilight 3:55 AM PDT 10:16 PM PDT
Moon 2:10 AM PDT (6/2) 3:05 PM PDT (6/2)
Length of Visible Light 15h 38m
Length of Day
14h 37m
Waning Crescent, 30% of the Moon is Illuminated
Jun 2
Waning Crescent
Jun 8
New
Jun 16
First Quarter
Jun 23
Full
Jun 29
Last Quarter

Hourly Weather History & Observations

Time (PDT) Temp. Dew Point Humidity Pressure Visibility Wind Dir Wind Speed Gust Speed Precip Events Conditions
12:53 AM 64.9 °F 50.0 °F 58% 29.76 in 10.0 mi WNW 6.9 mph - N/A   Clear
1:53 AM 64.0 °F 50.0 °F 60% 29.76 in 10.0 mi NW 3.5 mph - N/A   Clear
2:53 AM 62.1 °F 48.9 °F 62% 29.75 in 10.0 mi WNW 5.8 mph - N/A   Clear
3:53 AM 59.0 °F 48.0 °F 67% 29.75 in 10.0 mi WNW 5.8 mph - N/A   Clear
4:53 AM 57.0 °F 48.0 °F 72% 29.75 in 10.0 mi West 4.6 mph - N/A   Clear
5:53 AM 57.0 °F 48.9 °F 74% 29.76 in 10.0 mi NW 6.9 mph - N/A   Clear
6:53 AM 57.0 °F 48.9 °F 74% 29.76 in 10.0 mi Calm Calm - N/A   Clear
7:53 AM 62.1 °F 48.9 °F 62% 29.76 in 10.0 mi West 4.6 mph - N/A   Clear
8:53 AM 66.0 °F 51.1 °F 59% 29.76 in 10.0 mi Calm Calm - N/A   Clear
9:53 AM 72.0 °F 50.0 °F 46% 29.74 in 10.0 mi WNW 5.8 mph - N/A   Clear
10:53 AM 75.9 °F 51.1 °F 42% 29.73 in 10.0 mi WNW 6.9 mph - N/A   Clear
11:53 AM 80.1 °F 50.0 °F 35% 29.72 in 10.0 mi WSW 3.5 mph - N/A   Clear
12:53 PM 84.0 °F 48.9 °F 29% 29.69 in 10.0 mi Variable 5.8 mph - N/A   Clear
1:53 PM 87.1 °F 51.1 °F 29% 29.68 in 10.0 mi West 9.2 mph - N/A   Clear
2:53 PM 87.1 °F 50.0 °F 28% 29.67 in 10.0 mi WNW 15.0 mph - N/A   Clear
3:53 PM 84.9 °F 48.9 °F 29% 29.67 in 10.0 mi WNW 16.1 mph - N/A   Clear
4:53 PM 82.0 °F 48.9 °F 31% 29.66 in 10.0 mi West 13.8 mph - N/A   Clear
5:53 PM 78.1 °F 50.0 °F 37% 29.65 in 10.0 mi WNW 15.0 mph - N/A   Clear
6:53 PM 75.0 °F 50.0 °F 41% 29.65 in 10.0 mi WNW 11.5 mph - N/A   Clear
7:53 PM 69.1 °F 50.0 °F 51% 29.67 in 10.0 mi WNW 13.8 mph - N/A   Clear
8:53 PM 66.0 °F 50.0 °F 56% 29.68 in 10.0 mi NW 8.1 mph - N/A   Clear
9:53 PM 64.9 °F 50.0 °F 58% 29.70 in 10.0 mi WNW 8.1 mph - N/A   Clear
10:53 PM 62.1 °F 50.0 °F 65% 29.71 in 10.0 mi NW 6.9 mph - N/A   Clear
11:53 PM 60.1 °F 50.0 °F 69% 29.70 in 10.0 mi WSW 3.5 mph - N/A   Clear